Zurück zum Katalog

METEOR 2-8 DEB

LostPO
NORAD 36344·DEBRIS·🇷🇺 Russia

Gestartet Mar 25, 1982 von Plesetsk Cosmodrome

Loading…

Nächste Überflüge (nächste 24 Stunden)

TLE

VeraltetSource: Space-Track

Epoche: Nov 2, 2022, 02:54 UTC

1 36344U 82025AE  22306.12134575  .00008341  00000-0  30487-2 0  9998
2 36344  82.5209  88.5133 0025921 235.9311 123.9415 14.32690515915780

Verfolge METEOR 2-8 DEB in Echtzeit mit AllMySat

Download on the App Store